Wind_Speed
15 16 16 16 16 16 16 17 18 18 18 18 18 18 17 15 15 13 13 13 13 13 12 11 4 5 4 7 14 2 6 13 15 16 19 14 16 18 17 17 12 11 13 14 6 9 9
14 15 15 15 16 16 16 17 18 18 18 18 18 20 21 19 14 14 12 11 14 11 13 10 5 5 10 14 9 12 3 6 13 17 19 17 12 18 10 20 17 15 12 15 7 9 7
19 17 18 15 15 16 17 18 19 19 18 18 19 21 22 23 18 14 13 12 12 9 10 9 9 9 11 15 4 7 10 11 12 15 14 18 20 10 9 16 8 8 10 11 8 6 3
17 19 19 19 20 19 21 21 19 19 20 19 20 21 22 23 23 18 14 13 11 12 8 8 7 10 8 8 14 14 10 10 11 12 12 13 13 7 10 5 5 11 8 11 16 11 5
18 17 16 19 20 20 22 23 24 22 24 21 21 22 23 23 23 22 18 14 13 11 8 7 6 11 9 7 10 19 18 10 12 12 12 11 6 6 2 8 5 10 11 17 8 13 7
17 18 18 18 19 20 21 22 22 23 25 25 24 22 24 24 23 23 22 15 8 2 5 7 7 4 12 9 9 14 16 16 9 10 8 12 9 9 13 6 10 17 14 17 12 12 11
17 18 18 18 20 20 20 20 21 21 22 24 26 25 22 24 25 27 18 5 4 5 14 11 11 11 0 9 8 11 14 13 13 12 17 18 10 17 24 21 20 20 14 16 14 13 9
17 19 19 20 22 23 22 22 23 22 22 22 25 24 26 24 25 24 5 6 6 5 9 21 24 21 13 13 7 11 16 13 15 15 20 15 18 26 22 21 22 13 18 12 5 11 9
17 18 19 20 20 22 23 23 24 25 24 25 26 26 28 24 23 5 8 13 9 7 8 15 23 19 20 15 13 17 19 19 17 20 23 21 22 26 22 18 14 12 16 11 1 7 5
18 19 19 20 19 21 23 24 24 25 26 27 28 25 29 29 12 7 10 6 5 4 6 7 7 8 25 11 11 15 28 15 12 21 22 17 22 23 15 18 19 16 7 7 11 10 7
17 18 19 19 21 21 22 24 25 27 27 27 28 29 28 22 18 10 5 9 5 4 7 6 7 5 18 16 10 14 26 14 14 15 18 14 20 15 18 21 19 10 8 9 11 11 4
18 19 20 20 21 22 24 24 25 27 27 29 30 29 28 21 13 14 10 5 4 5 10 7 8 12 18 22 8 10 16 12 4 17 16 19 4 12 18 15 12 13 9 6 4 5 7
18 19 20 20 22 22 23 24 26 26 28 29 30 35 33 24 16 6 8 5 5 9 3 9 8 15 20 16 14 15 20 23 14 11 15 19 11 3 4 9 7 15 16 4 5 4 9
19 20 21 21 22 22 23 24 25 27 29 32 35 34 28 26 21 22 13 8 15 12 23 5 5 15 15 18 15 19 21 22 27 18 15 17 12 15 14 14 11 22 17 6 8 8 9
19 20 21 22 22 22 23 24 26 27 29 32 34 23 25 16 16 17 7 14 12 16 11 11 9 15 17 19 9 18 23 26 27 25 14 18 17 15 11 6 10 17 13 11 1 1 3
19 20 21 21 22 22 24 25 26 27 29 34 24 19 20 9 9 15 10 32 15 19 9 9 19 18 19 22 16 21 20 21 27 28 23 13 12 12 5 4 6 8 11 7 4 6 7
23 22 21 23 21 21 23 24 25 26 29 30 17 6 5 12 10 5 15 18 18 30 26 10 16 23 20 16 24 24 14 13 32 29 25 10 5 7 7 15 17 6 7 7 4 8 7
24 24 26 24 23 23 22 24 24 26 27 21 8 5 5 16 4 4 13 19 7 24 19 23 18 17 23 19 22 24 22 16 24 24 31 24 4 7 14 3 4 16 15 17 8 9 7
25 23 25 25 23 22 22 22 23 23 24 23 7 9 14 5 6 12 12 13 22 28 23 22 23 19 16 18 12 22 15 7 14 22 21 19 11 7 5 1 3 8 15 16 5 5 12
25 26 25 25 24 22 21 21 21 21 21 19 5 5 8 4 2 3 10 19 17 13 25 29 30 26 26 19 18 7 17 3 9 18 5 16 10 19 16 12 14 12 19 17 12 4 11
28 28 26 24 23 23 22 21 20 19 19 13 3 4 8 6 9 20 17 13 24 20 14 21 23 32 30 22 20 18 14 5 7 6 10 15 7 18 19 1 12 11 22 23 19 22 11
27 27 24 24 23 24 24 23 20 21 17 12 5 3 4 12 16 18 19 16 20 13 9 19 16 31 32 30 25 14 12 9 6 10 14 9 1 2 2 3 7 5 16 23 25 20 18
29 26 25 25 25 25 25 24 21 20 14 6 7 10 4 9 13 14 16 17 22 23 17 18 26 24 31 34 25 22 12 6 7 12 18 13 7 4 9 7 5 4 19 19 21 20 21
29 26 26 26 27 27 25 23 21 19 16 15 16 11 5 13 13 16 22 23 22 21 26 28 27 23 24 24 10 7 5 5 6 7 9 15 11 4 4 8 7 4 4 16 19 17 18
28 27 27 27 27 27 27 23 22 19 19 20 19 9 5 12 14 20 22 20 25 24 22 26 33 27 15 22 15 11 4 3 3 1 6 13 13 5 6 9 1 3 5 8 15 10 16
27 27 28 28 26 25 25 23 22 21 20 22 19 17 7 7 13 19 23 21 17 12 20 19 18 16 17 10 12 13 11 11 6 5 1 6 14 7 5 6 10 6 8 4 8 7 15
29 28 28 26 26 25 25 23 23 22 22 21 21 19 9 8 14 16 15 16 17 15 12 14 7 11 14 11 11 12 12 15 10 15 8 6 7 11 8 6 2 3 8 6 8 3 12
28 29 27 26 26 27 27 24 22 22 21 20 22 16 14 9 15 24 23 16 13 10 10 13 11 4 5 8 10 7 5 8 7 12 9 8 9 8 9 5 6 8 4 4 4 7 11
28 28 28 27 27 28 25 23 20 19 20 19 21 18 17 7 11 33 34 34 26 25 15 6 7 16 2 4 2 4 4 4 9 8 1 4 1 6 3 3 5 5 5 7 3 12 14
Wind_Direction
27 23 19 16 12 8 4 3 3 1 358 356 353 348 345 327 318 309 297 296 296 304 296 292 305 273 215 241 258 330 300 228 204 211 219 218 218 212 219 209 183 224 189 163 249 325 299
9 8 5 5 5 5 2 1 360 358 355 353 350 350 348 338 323 311 296 291 290 298 294 289 249 210 247 262 260 237 151 164 188 199 212 221 228 223 286 238 204 200 185 183 184 272 286
25 22 18 357 351 350 348 347 349 350 349 348 348 349 348 345 331 315 298 288 287 281 281 283 259 184 251 249 280 227 199 208 209 208 222 220 233 250 319 257 192 141 141 174 170 204 289
359 4 7 5 1 0 2 6 354 337 335 336 339 345 346 345 343 325 306 293 283 277 270 238 261 212 249 268 242 241 220 219 224 232 233 247 229 263 256 318 160 174 154 178 187 172 211
4 360 357 1 357 356 352 348 349 346 352 332 325 333 338 342 345 339 319 300 289 273 243 229 168 237 257 191 220 229 215 205 205 210 228 238 191 225 258 226 190 199 185 192 165 192 157
14 11 8 359 356 354 353 350 345 343 341 341 347 323 327 331 336 336 322 307 275 191 178 186 234 214 228 223 208 217 207 217 181 175 206 215 203 200 224 207 206 189 207 198 173 184 187
4 356 357 359 356 351 352 352 347 343 339 339 332 337 329 320 327 328 317 285 218 202 208 214 195 203 44 159 160 213 194 197 195 185 198 199 177 211 211 208 224 211 210 186 190 158 168
8 5 1 358 351 353 348 344 343 346 341 338 338 334 329 325 319 321 259 246 336 348 279 228 250 227 240 189 176 203 189 186 198 202 205 185 202 218 217 216 225 253 197 189 118 145 193
3 360 358 357 350 347 347 346 346 342 340 342 336 330 332 318 324 296 287 267 295 318 266 257 229 231 219 204 214 190 196 208 192 203 208 203 214 213 225 210 215 230 202 194 190 116 221
359 356 356 351 349 350 350 346 342 340 341 336 340 336 333 331 298 306 294 314 297 235 269 257 196 242 201 202 226 209 197 187 206 207 214 225 227 205 214 212 210 214 225 158 133 139 230
2 357 355 353 352 349 347 341 341 340 336 332 333 330 329 326 291 288 322 320 306 228 275 137 149 141 169 193 114 189 195 184 218 202 199 202 227 205 216 217 205 221 158 178 173 203 278
351 350 348 349 350 347 345 342 340 339 337 333 331 325 326 319 296 268 292 266 241 229 238 202 154 174 167 206 174 129 191 218 255 218 206 217 332 223 234 223 223 136 121 133 184 224 242
345 343 342 343 343 342 343 341 337 333 335 331 328 320 308 283 262 245 306 226 211 232 142 182 193 181 185 182 189 175 190 198 189 178 201 213 219 163 208 174 172 178 161 152 184 192 239
340 338 338 337 334 337 338 338 339 338 330 328 325 322 296 273 252 248 266 220 229 220 219 95 172 178 193 174 203 188 187 206 220 214 177 196 207 192 199 207 191 199 188 182 201 200 213
332 331 330 329 332 333 332 333 331 333 335 334 326 317 289 285 248 222 227 222 220 223 269 190 160 190 202 196 187 187 208 205 211 217 185 193 216 152 191 194 196 199 217 242 248 293 250
322 323 322 325 327 329 329 330 332 334 335 336 320 306 281 274 233 201 230 232 223 253 315 213 216 206 199 194 196 191 197 210 206 216 240 194 194 199 157 189 238 219 178 182 234 191 229
319 318 320 317 321 324 328 327 331 334 336 337 322 309 309 342 200 217 230 233 244 258 280 255 249 259 236 198 202 196 210 203 200 200 213 240 182 158 159 209 188 164 192 217 237 245 242
310 313 312 315 317 320 323 327 328 333 337 342 318 289 285 321 267 245 250 249 224 272 267 252 269 284 278 227 207 210 216 200 195 194 197 211 184 168 198 70 298 236 214 204 209 193 233
310 312 310 310 317 315 317 321 329 333 336 339 306 287 286 218 245 248 282 305 288 253 258 273 260 243 268 260 228 222 224 220 173 190 189 188 198 141 167 202 217 219 217 231 204 337 207
313 310 311 312 313 313 315 318 321 326 331 334 295 298 281 221 245 289 330 310 301 307 264 257 257 258 254 247 238 242 212 138 192 195 207 172 225 214 208 204 146 201 210 208 194 198 199
311 313 312 312 310 311 311 313 315 315 323 329 272 284 329 307 314 319 301 288 287 290 280 252 258 244 251 248 241 226 219 134 188 210 196 182 236 215 237 180 178 191 193 190 201 220 203
312 310 310 311 311 308 309 307 306 309 310 297 286 300 308 290 293 295 296 284 288 306 323 297 289 245 230 246 237 217 201 190 182 182 196 200 238 173 149 166 203 212 203 201 212 217 233
313 310 309 310 309 305 308 309 307 302 296 281 281 276 267 281 295 294 283 293 312 311 299 291 297 272 234 234 242 268 218 223 159 177 188 176 140 162 215 159 133 279 215 201 214 217 214
310 310 312 310 309 310 306 303 306 297 280 279 279 284 273 285 290 293 303 302 294 306 299 300 301 269 243 240 164 104 82 102 138 211 214 187 174 169 129 157 202 242 353 202 203 213 212
313 312 311 312 311 311 310 302 301 299 284 281 283 273 268 278 289 294 299 309 307 297 297 300 285 255 226 240 199 195 182 154 117 70 230 207 181 150 159 211 13 165 183 173 182 219 210
311 311 312 313 316 315 310 305 299 297 286 281 278 275 265 279 274 314 302 296 286 323 307 291 313 274 226 211 192 195 194 202 169 135 9 229 220 195 172 203 224 91 139 161 175 237 182
313 311 314 312 311 312 311 303 295 294 286 280 282 279 263 275 275 289 296 295 299 287 281 316 331 293 220 215 183 197 207 176 168 160 157 172 186 201 186 213 188 76 144 160 174 152 164
312 312 313 313 312 312 310 303 298 293 286 286 284 279 267 276 285 282 286 280 291 258 291 295 310 215 198 217 186 191 169 185 157 156 158 159 168 188 200 188 222 147 104 210 88 107 129
316 315 314 312 311 313 309 307 300 296 294 293 284 286 280 259 278 282 280 276 266 267 267 240 278 300 271 255 223 128 138 167 147 167 204 168 151 151 176 152 104 32 66 93 114 128 128
Height
853 850 847 845 842 839 837 833 829 826 823 820 815 812 807 805 803 800 799 798 797 796 795 794 791 795 796 793 785 779 778 779 780 784 785 784 782 778 781 778 782 789 791 791 794 789 790
854 850 848 845 842 839 836 833 829 826 823 820 815 811 807 803 800 797 795 794 794 794 794 792 789 791 793 789 778 778 778 779 779 781 782 782 778 774 773 763 775 770 778 786 796 798 790
852 850 848 845 842 839 837 834 830 826 823 820 815 811 807 803 799 795 793 791 790 789 790 790 790 787 790 782 778 777 776 780 782 782 781 781 778 776 776 766 766 777 786 792 795 799 793
853 851 848 845 842 838 836 832 829 826 823 819 815 810 806 802 798 795 791 789 786 787 787 785 789 787 780 773 775 777 776 777 778 780 781 781 781 784 781 769 774 778 781 788 782 794 791
855 851 849 845 843 839 836 832 828 824 821 818 814 809 805 801 795 794 790 786 785 783 783 785 785 788 772 769 772 771 772 773 775 779 781 782 783 784 780 783 785 778 773 774 784 780 788
855 852 849 847 843 839 835 831 827 824 820 816 811 807 804 800 794 789 787 785 781 781 783 784 783 788 768 763 765 767 769 772 771 775 781 780 780 780 780 789 785 771 764 766 768 781 781
856 853 850 847 843 839 835 831 827 822 818 814 809 805 801 797 793 788 784 783 783 779 776 764 759 755 755 758 762 765 766 768 767 769 775 773 778 778 774 767 758 747 752 762 760 769 777
857 854 850 847 844 840 835 831 827 822 817 813 808 803 798 793 789 784 781 779 771 777 764 757 755 752 753 755 756 760 765 764 763 764 763 765 767 762 753 754 758 753 749 760 768 769 772
857 854 850 847 844 840 836 832 827 822 817 813 807 802 796 790 785 783 779 775 775 773 764 743 737 741 745 752 746 750 760 757 755 759 754 748 740 754 748 747 759 749 749 751 754 766 771
857 855 851 847 843 839 835 831 827 822 817 812 806 801 796 790 784 777 776 775 772 774 762 733 734 731 736 744 743 739 751 752 749 750 748 744 737 747 747 749 754 754 743 750 761 768 774
857 855 851 846 842 839 835 829 825 821 817 811 805 800 796 792 785 777 772 774 772 772 764 721 730 728 731 737 731 736 744 745 744 741 740 743 739 746 746 742 742 747 746 754 763 764 758
859 855 850 846 841 836 833 828 824 819 813 808 803 798 794 789 784 777 773 769 772 767 750 725 727 729 731 731 731 737 742 741 739 737 734 736 748 740 737 736 738 752 757 762 763 763 775
857 853 849 845 840 836 831 826 822 818 813 807 801 794 790 786 780 776 773 768 763 745 710 714 720 721 722 724 728 730 738 741 734 744 742 741 746 745 747 750 751 745 754 773 780 783 765
856 852 848 844 840 835 830 825 820 816 812 805 799 789 779 775 774 773 774 763 740 703 703 705 710 715 717 713 719 723 726 733 727 715 726 740 750 746 739 733 743 741 738 748 764 755 747
853 850 846 842 837 834 830 824 819 814 809 802 793 784 771 766 767 770 768 746 704 700 690 699 711 711 711 706 705 716 712 714 717 709 707 722 730 731 735 739 733 743 745 726 745 751 740
851 848 844 839 835 830 827 822 817 811 806 799 791 782 766 764 763 765 756 718 703 697 694 691 695 692 693 696 707 705 705 691 699 702 697 697 720 737 744 744 741 731 724 746 746 757 744
849 845 841 837 832 827 824 820 815 809 803 796 788 780 761 761 760 759 742 720 711 708 704 701 692 682 676 684 690 689 676 678 683 689 702 699 698 743 745 735 726 741 735 730 725 718 721
846 841 837 833 829 824 820 817 812 807 801 794 790 781 760 764 762 752 737 736 724 715 701 701 698 692 679 668 678 678 677 667 665 677 689 695 697 731 728 731 728 717 716 717 722 728 722
840 836 832 828 824 820 817 813 809 805 800 795 786 774 762 761 757 740 735 738 728 715 717 707 696 690 679 674 677 672 667 664 669 673 683 686 696 719 733 736 732 729 720 710 719 726 716
836 832 828 823 819 815 812 809 805 802 798 796 788 773 756 755 750 756 747 737 724 713 707 704 699 688 683 680 666 663 665 683 676 673 679 681 680 680 678 676 700 723 715 716 717 733 704
830 827 823 819 814 810 807 804 802 798 796 794 785 772 770 758 752 755 747 746 732 720 705 703 699 689 679 674 665 667 666 686 688 684 682 677 695 670 667 683 683 689 697 707 719 701 716
825 819 816 813 809 805 801 798 796 793 792 790 784 780 772 769 757 751 745 733 730 722 729 718 711 683 676 668 659 664 664 670 670 683 679 675 690 693 697 696 690 697 689 694 696 701 697
820 815 811 807 803 799 796 793 790 788 788 785 779 777 775 760 752 747 737 734 728 728 709 705 705 693 663 660 657 650 651 654 655 666 670 676 692 699 689 698 703 706 687 685 688 692 689
815 810 806 801 797 793 789 787 784 782 781 780 776 775 769 752 747 741 736 733 728 728 721 700 695 691 662 651 659 661 661 659 660 661 661 666 678 682 705 701 701 664 681 671 678 681 684
810 805 800 795 791 787 784 780 778 776 774 772 770 769 764 750 742 736 733 728 723 715 705 699 676 662 653 652 646 654 664 669 676 670 667 658 666 683 693 688 668 678 684 679 678 681 678
804 800 794 789 785 782 778 775 772 770 767 765 763 763 759 748 736 732 730 730 724 715 698 685 673 655 643 643 631 640 643 644 666 680 679 673 660 664 680 679 673 656 673 676 676 677 675
798 794 789 785 781 776 772 769 766 763 761 759 756 756 752 741 734 730 727 724 722 719 704 688 678 663 637 630 626 630 628 627 653 660 676 675 670 667 671 671 660 679 682 681 680 678 677
792 787 783 779 775 771 767 763 760 757 754 754 749 748 747 737 729 727 721 723 716 712 706 694 690 656 650 633 619 617 615 632 635 643 649 660 664 665 661 669 671 683 691 677 693 693 692
787 782 778 773 769 765 760 757 754 751 749 747 743 741 739 734 723 719 713 710 708 704 702 695 681 670 635 628 618 623 628 639 631 647 663 660 650 650 653 661 693 698 696 700 700 701 706